Flag for U.S.A. Weather past 2 weeks in Cape Coral, Florida, U.S.A.

Now
70 °F

Clear.


Feels Like: 70 °F
Forecast: 69 / 82 °F
Wind: 8 mph from Northeast

Location: Page Field

Current Time: Oct 23, 2014 at 6:14:41 AM

Latest Report: Oct 23, 2014 at 5:53 AM


Visibility: 10 mi

Pressure: 29.91 "Hg

Humidity: 81%

Dew point: 64 °F

Location of Cape CoralLocation

Historic Weather in Cape Coral — Graph

°F

Cape Coral temperature yesterday

Maximum temperature yesterday: 86 °F (at 3:53 PM)
Minimum temperature yesterday: 71 °F (at 6:53 AM)
Average temperature yesterday: 77 °F

Past Weeks' High & Low Weather Summary

 TemperatureHumidityPressure
High91 °F (Oct 11, 3:53 PM)97% (Oct 8, 6:53 AM)30.12 "Hg (Oct 8, 6:53 AM)
Low62 °F (Oct 17, 7:53 AM)34% (Oct 9, 2:53 PM)29.90 "Hg (Oct 16, 5:53 PM)
Average77 °F76%29.98 "Hg
* Reported Oct 8 4:53 AM — Oct 23 4:53 AM, Cape Coral, Weather by CustomWeather, © 2014

Note: Actual official high and low records may vary slightly from our data, if they occured in-between our weather recording intervals... More about our weather records

Advertising

Cape Coral weather history for previous 24 hours

 ConditionsComfort  
Time TempWeatherWind HumidityBarometerVisibility
4:53 AM
Oct 23
71 °FPassing clouds.8 mph81%29.90 "Hg10 mi
3:53 AM71 °FClear.9 mph81%29.90 "Hg10 mi
2:53 AM72 °FClear.7 mph81%29.92 "Hg10 mi
1:53 AM73 °FPassing clouds.12 mph79%29.92 "Hg10 mi
12:53 AM75 °FMostly cloudy.9 mph79%29.93 "Hg10 mi
11:53 PM
Oct 22
76 °FPassing clouds.7 mph82%29.93 "Hg10 mi
10:53 PM77 °FPassing clouds.No wind82%29.93 "Hg10 mi
9:53 PM77 °FPassing clouds.3 mph82%29.94 "Hg10 mi
8:53 PM78 °FMostly cloudy.3 mph79%29.94 "Hg10 mi
7:53 PM78 °FMostly cloudy.No wind79%29.93 "Hg10 mi
6:53 PM80 °FOvercast.No wind71%29.92 "Hg10 mi
5:53 PM80 °FBroken clouds.No wind76%29.90 "Hg10 mi
4:53 PM83 °FScattered clouds.5 mph61%29.90 "Hg10 mi
3:53 PM86 °FPassing clouds.6 mph59%29.90 "Hg10 mi
2:53 PM85 °FPassing clouds.6 mph63%29.90 "Hg10 mi
1:53 PM82 °FSunny.5 mph67%29.93 "Hg10 mi
12:53 PM81 °FPassing clouds.No wind69%29.97 "Hg10 mi
11:53 AM80 °FPassing clouds.6 mph74%29.98 "Hg10 mi
10:53 AM78 °FSunny.8 mph79%29.98 "Hg10 mi
9:53 AM75 °FSunny.5 mph90%29.98 "Hg10 mi
8:53 AM73 °FScattered clouds.3 mph94%29.97 "Hg10 mi
7:53 AM72 °FClear.3 mph97%29.95 "Hg10 mi
6:53 AM71 °FClear.No wind96%29.94 "Hg10 mi
Weather by CustomWeather, © 2014

See weather overviewHow to use our weather pages